Simultaneous Nadir Overpasses (SNOs) Predictions

Prediction of SNOs near equator between NOAA-19 and NPP Satellite Orbit:

Table of predicted SNOs near equator for the next 14.0 days since TLE Epoch: 8/31/2012
Index Date (NOAA-19) Time (NOAA-19) NOAA-19 Lat,Lon Date (NPP) Time (NPP) NPP Lat,Lon Distance(km) Time Diff (sec)
1 09/03/2012 12:32:12 -29.96,-169.88 09/03/2012 12:26:29 -29.74,-170.85 96.84 343
2 09/03/2012 13:23:23 29.99, -2.68 09/03/2012 13:17:19 29.81, -3.57 88.34 364
3 09/03/2012 14:14:17 -29.96, 164.61 09/03/2012 14:08:00 -29.81, 163.76 83.10 377
4 09/03/2012 15:05:28 29.99, -28.20 09/03/2012 14:58:49 29.81, -28.94 74.61 399
5 09/03/2012 15:56:22 -29.95, 139.09 09/03/2012 15:49:30 -29.82, 138.38 69.30 412
6 09/03/2012 16:47:33 29.98, -53.72 09/03/2012 16:40:20 29.88, -54.34 60.91 433
7 09/03/2012 17:38:27 -29.94, 113.57 09/03/2012 17:31:00 -29.82, 113.01 55.54 447
8 09/03/2012 18:29:38 29.97, -79.23 09/03/2012 18:21:50 29.89, -79.71 47.10 468
9 09/03/2012 19:20:33 -29.99, 88.03 09/03/2012 19:12:31 -29.89, 87.62 41.79 482
10 09/03/2012 20:11:43 29.96,-104.75 09/03/2012 20:03:20 29.90,-105.09 33.32 503
11 09/03/2012 21:02:38 -29.99, 62.51 09/03/2012 20:54:02 -29.96, 62.22 28.16 516
12 09/03/2012 21:53:48 29.96,-130.27 09/03/2012 21:44:50 29.90,-130.47 19.63 538
13 09/03/2012 22:44:43 -29.98, 36.99 09/03/2012 22:35:32 -29.96, 36.85 14.32 551
14 09/03/2012 23:35:53 29.95,-155.79 09/03/2012 23:26:20 29.91,-155.84 6.59 573
15 09/04/2012 00:26:48 -29.97, 11.47 09/04/2012 00:17:02 -29.97, 11.47
